SWA3263 KLAS-PHNL

Flight info

Callsign SWA3263
Flight time 6h 13m
Altitude 30000
Route JOHKR5 KENNO OAK BEBOP R464 BARAZ/N0428F320 R464 BEKME/N0433F340 R464 BITTA MAGGI3
Aircraft B737/M-SDE2E3FGHIRWXY/LB1

Departure

Time 2026-05-03 22:56
Airport Harry Reid International Airport (KLAS)

Arrival

Time 2026-05-04 05:09
Airport Daniel K. Inouye International Airport (PHNL)
Time Latitude Longitude Altitude Speed Heading
2026-05-03 22:38 36.07989 -115.14702 2205 ft 0 kts 56°
2026-05-03 22:46 36.07980 -115.14719 2187 ft 3 kts 56°
2026-05-03 22:46 36.07970 -115.14738 2189 ft 3 kts 56°
2026-05-03 22:46 36.07963 -115.14759 2190 ft 3 kts 117°
2026-05-03 22:47 36.07969 -115.14768 2189 ft 0 kts 147°
2026-05-03 22:50 36.07946 -115.14752 2188 ft 8 kts 150°
2026-05-03 22:50 36.07881 -115.14701 2189 ft 13 kts 141°
2026-05-03 22:51 36.07846 -115.14606 2186 ft 13 kts 94°
2026-05-03 22:51 36.07836 -115.14499 2188 ft 12 kts 108°
2026-05-03 22:51 36.07775 -115.14438 2188 ft 12 kts 138°
2026-05-03 22:51 36.07756 -115.14340 2188 ft 12 kts 93°
2026-05-03 22:52 36.07758 -115.14230 2190 ft 13 kts 91°
2026-05-03 22:52 36.07756 -115.14119 2187 ft 14 kts 91°
2026-05-03 22:52 36.07754 -115.13983 2187 ft 18 kts 91°
2026-05-03 22:52 36.07754 -115.13821 2188 ft 19 kts 90°
2026-05-03 22:53 36.07754 -115.13647 2188 ft 22 kts 90°
2026-05-03 22:53 36.07754 -115.13434 2189 ft 28 kts 90°
2026-05-03 22:53 36.07755 -115.13175 2188 ft 31 kts 90°
2026-05-03 22:53 36.07757 -115.12916 2190 ft 29 kts 90°
2026-05-03 22:54 36.07756 -115.12676 2188 ft 28 kts 92°
2026-05-03 22:54 36.07757 -115.12446 2189 ft 26 kts 89°
2026-05-03 22:54 36.07758 -115.12241 2187 ft 21 kts 88°
2026-05-03 22:54 36.07703 -115.12130 2190 ft 17 kts 170°
2026-05-03 22:55 36.07641 -115.12171 2192 ft 10 kts 263°
2026-05-03 22:55 36.07641 -115.12184 2191 ft 0 kts 266°
2026-05-03 22:55 36.07640 -115.12239 2188 ft 30 kts 269°
2026-05-03 22:55 36.07639 -115.12800 2189 ft 99 kts 270°
2026-05-03 22:56 36.07640 -115.13902 2189 ft 156 kts 269°
2026-05-03 22:56 36.07669 -115.15397 2372 ft 191 kts 269°
2026-05-03 22:56 36.07719 -115.17006 3236 ft 183 kts 263°
2026-05-03 22:56 36.07712 -115.18624 3794 ft 197 kts 261°
2026-05-03 22:57 36.07676 -115.20435 3966 ft 222 kts 258°
2026-05-03 22:57 36.07428 -115.22385 4348 ft 235 kts 255°
2026-05-03 22:57 36.07039 -115.24332 5067 ft 228 kts 236°
2026-05-03 22:57 36.06110 -115.25859 5884 ft 218 kts 217°
2026-05-03 22:58 36.04852 -115.26838 6632 ft 214 kts 198°
2026-05-03 22:58 36.03443 -115.27495 7273 ft 220 kts 198°
2026-05-03 22:58 36.01990 -115.28151 7865 ft 223 kts 198°
2026-05-03 22:58 36.00526 -115.28813 7973 ft 237 kts 198°
2026-05-03 22:59 35.98890 -115.29573 8034 ft 263 kts 202°
2026-05-03 22:59 35.97210 -115.30635 8608 ft 273 kts 206°
2026-05-03 22:59 35.95578 -115.31742 9699 ft 266 kts 206°
2026-05-03 22:59 35.93928 -115.32845 10385 ft 273 kts 206°
2026-05-03 23:00 35.92283 -115.33932 10881 ft 264 kts 206°
2026-05-03 23:00 35.90653 -115.35020 11003 ft 273 kts 210°
2026-05-03 23:00 35.89294 -115.36694 11020 ft 282 kts 235°
2026-05-03 23:00 35.88579 -115.38973 10994 ft 291 kts 256°
2026-05-03 23:01 35.88481 -115.41478 11004 ft 294 kts 265°
2026-05-03 23:01 35.88553 -115.43994 11013 ft 292 kts 267°
2026-05-03 23:01 35.88643 -115.46498 11005 ft 292 kts 266°
2026-05-03 23:01 35.88717 -115.48998 10998 ft 292 kts 267°
2026-05-03 23:02 35.88783 -115.51493 11017 ft 291 kts 265°
2026-05-03 23:02 35.88831 -115.53992 11002 ft 292 kts 266°
2026-05-03 23:02 35.88878 -115.56503 10990 ft 294 kts 265°
2026-05-03 23:02 35.88922 -115.59094 11106 ft 312 kts 265°
2026-05-03 23:03 35.88967 -115.61838 11309 ft 336 kts 266°
2026-05-03 23:03 35.89020 -115.64781 11824 ft 348 kts 267°
2026-05-03 23:03 35.89080 -115.67796 12423 ft 356 kts 267°
2026-05-03 23:03 35.89138 -115.70864 13178 ft 359 kts 268°
2026-05-03 23:04 35.89196 -115.73955 13926 ft 362 kts 267°
2026-05-03 23:04 35.89254 -115.77069 14608 ft 364 kts 267°
2026-05-03 23:04 35.89310 -115.80200 15383 ft 365 kts 267°
2026-05-03 23:04 35.89366 -115.83346 16129 ft 367 kts 267°
2026-05-03 23:05 35.89419 -115.86471 16775 ft 371 kts 267°
2026-05-03 23:05 35.89472 -115.89656 17473 ft 373 kts 267°
2026-05-03 23:05 35.89836 -115.92849 18101 ft 384 kts 285°
2026-05-03 23:05 35.91084 -115.95795 18717 ft 394 kts 304°
2026-05-03 23:06 35.92950 -115.98291 19417 ft 396 kts 310°
2026-05-03 23:06 35.94918 -116.00695 20043 ft 399 kts 311°
2026-05-03 23:06 35.96928 -116.03107 20462 ft 407 kts 311°
2026-05-03 23:06 35.98962 -116.05553 20989 ft 409 kts 311°
2026-05-03 23:07 36.00997 -116.08018 21617 ft 409 kts 310°
2026-05-03 23:07 36.03021 -116.10491 22214 ft 411 kts 309°
2026-05-03 23:07 36.05054 -116.12993 22814 ft 413 kts 309°
2026-05-03 23:07 36.07089 -116.15509 23361 ft 415 kts 309°
2026-05-03 23:08 36.09131 -116.18040 23860 ft 416 kts 308°
2026-05-03 23:08 36.11143 -116.20534 24437 ft 414 kts 308°
2026-05-03 23:08 36.13172 -116.23050 25046 ft 412 kts 308°
2026-05-03 23:08 36.15196 -116.25564 25547 ft 413 kts 307°
2026-05-03 23:09 36.17218 -116.28077 26192 ft 408 kts 307°
2026-05-03 23:09 36.19207 -116.30546 27008 ft 400 kts 306°
2026-05-03 23:09 36.21149 -116.32957 27897 ft 390 kts 305°
2026-05-03 23:09 36.23039 -116.35309 28815 ft 380 kts 304°
2026-05-03 23:10 36.24884 -116.37611 29446 ft 377 kts 303°
2026-05-03 23:10 36.26723 -116.39911 29734 ft 374 kts 303°
2026-05-03 23:10 36.28567 -116.42216 29695 ft 376 kts 303°
2026-05-03 23:11 36.32333 -116.46721 29727 ft 382 kts 305°
2026-05-03 23:11 36.36213 -116.51306 29719 ft 387 kts 305°
2026-05-03 23:12 36.40111 -116.55929 29685 ft 385 kts 305°
2026-05-03 23:12 36.43925 -116.60476 29681 ft 379 kts 305°
2026-05-03 23:13 36.47780 -116.64947 29685 ft 386 kts 307°
2026-05-03 23:13 36.51807 -116.69481 29703 ft 395 kts 308°
2026-05-03 23:14 36.55857 -116.74071 29689 ft 392 kts 307°
2026-05-03 23:14 36.59875 -116.78650 29688 ft 391 kts 307°
2026-05-03 23:15 36.63856 -116.83197 29715 ft 390 kts 308°
2026-05-03 23:15 36.67925 -116.87859 29722 ft 404 kts 309°
2026-05-03 23:16 36.72081 -116.92608 29686 ft 402 kts 309°
2026-05-03 23:16 36.76743 -116.96569 29718 ft 412 kts 324°
2026-05-03 23:17 36.80991 -116.99241 29674 ft 409 kts 323°
2026-05-03 23:17 36.86937 -117.03035 29680 ft 420 kts 325°
2026-05-03 23:18 36.91332 -117.05882 29708 ft 429 kts 326°
2026-05-03 23:18 36.96572 -117.09280 29706 ft 426 kts 326°
2026-05-03 23:19 37.01827 -117.12698 29706 ft 425 kts 327°
2026-05-03 23:19 37.07086 -117.16128 29715 ft 427 kts 327°
2026-05-03 23:20 37.12368 -117.19576 29731 ft 428 kts 327°
2026-05-03 23:20 37.17638 -117.23023 29711 ft 426 kts 327°
2026-05-03 23:21 37.22880 -117.26456 29713 ft 424 kts 329°
2026-05-03 23:21 37.27825 -117.30253 29707 ft 414 kts 309°
2026-05-03 23:21 37.29509 -117.33180 29735 ft 406 kts 293°
2026-05-03 23:22 37.30911 -117.39888 29736 ft 401 kts 275°
2026-05-03 23:22 37.31610 -117.46868 29723 ft 404 kts 275°
2026-05-03 23:23 37.32295 -117.53908 29736 ft 406 kts 275°
2026-05-03 23:23 37.33008 -117.60901 29730 ft 404 kts 274°
2026-05-03 23:24 37.33737 -117.67880 29722 ft 401 kts 275°
2026-05-03 23:24 37.34462 -117.74804 29715 ft 399 kts 275°
2026-05-03 23:25 37.35185 -117.81736 29718 ft 400 kts 275°
2026-05-03 23:25 37.35900 -117.88632 29729 ft 401 kts 275°
2026-05-03 23:26 37.36616 -117.95582 29715 ft 400 kts 275°
2026-05-03 23:26 37.37328 -118.02531 29725 ft 400 kts 275°
2026-05-03 23:27 37.38037 -118.09489 29741 ft 401 kts 274°
2026-05-03 23:27 37.38741 -118.16451 29772 ft 402 kts 275°
2026-05-03 23:28 37.39452 -118.23524 29823 ft 413 kts 275°
2026-05-03 23:28 37.40172 -118.30717 29836 ft 416 kts 275°
2026-05-03 23:29 37.40880 -118.37837 29824 ft 411 kts 275°
2026-05-03 23:29 37.41589 -118.45011 29828 ft 415 kts 275°
2026-05-03 23:30 37.42298 -118.52228 29818 ft 415 kts 274°
2026-05-03 23:30 37.43000 -118.59427 29808 ft 414 kts 274°
2026-05-03 23:31 37.43695 -118.66595 29932 ft 411 kts 275°
2026-05-03 23:31 37.44384 -118.73752 29951 ft 413 kts 274°
2026-05-03 23:32 37.45080 -118.81050 29987 ft 428 kts 275°
2026-05-03 23:32 37.45787 -118.88500 29963 ft 430 kts 275°
2026-05-03 23:33 37.46493 -118.95959 29985 ft 427 kts 275°
2026-05-03 23:33 37.47191 -119.03388 29978 ft 426 kts 274°
2026-05-03 23:34 37.47882 -119.10813 29940 ft 427 kts 275°
2026-05-03 23:34 37.48569 -119.18262 29950 ft 429 kts 275°
2026-05-03 23:35 37.49255 -119.25734 29968 ft 430 kts 274°
2026-05-03 23:35 37.49922 -119.33012 29921 ft 413 kts 275°
2026-05-03 23:36 37.50584 -119.40348 29957 ft 430 kts 275°
2026-05-03 23:36 37.51267 -119.47984 29947 ft 444 kts 275°
2026-05-03 23:37 37.51955 -119.55684 29948 ft 439 kts 275°
2026-05-03 23:37 37.52631 -119.63291 29935 ft 434 kts 275°
2026-05-03 23:38 37.53294 -119.70828 29938 ft 432 kts 275°
2026-05-03 23:38 37.53943 -119.78280 29944 ft 431 kts 275°
2026-05-03 23:39 37.54595 -119.85804 29976 ft 431 kts 274°
2026-05-03 23:39 37.55234 -119.93235 29910 ft 429 kts 276°
2026-05-03 23:40 37.55884 -120.00861 29949 ft 446 kts 276°
2026-05-03 23:40 37.56547 -120.08699 29927 ft 449 kts 276°
2026-05-03 23:41 37.57200 -120.16466 29937 ft 447 kts 275°
2026-05-03 23:41 37.57846 -120.24223 29913 ft 443 kts 275°
2026-05-03 23:42 37.58482 -120.31921 29921 ft 440 kts 275°
2026-05-03 23:42 37.59110 -120.39578 29921 ft 438 kts 275°
2026-05-03 23:43 37.59731 -120.47218 29910 ft 437 kts 275°
2026-05-03 23:43 37.60356 -120.54971 29932 ft 451 kts 276°
2026-05-03 23:44 37.60990 -120.62896 29921 ft 454 kts 275°
2026-05-03 23:44 37.61615 -120.70769 29927 ft 453 kts 275°
2026-05-03 23:45 37.62235 -120.78660 29915 ft 451 kts 275°
2026-05-03 23:45 37.62847 -120.86515 29917 ft 449 kts 275°
2026-05-03 23:46 37.63452 -120.94340 29923 ft 448 kts 275°
2026-05-03 23:46 37.64050 -121.02150 29931 ft 447 kts 276°
2026-05-03 23:47 37.64648 -121.10029 29937 ft 456 kts 276°
2026-05-03 23:47 37.65254 -121.18069 29933 ft 461 kts 276°
2026-05-03 23:48 37.65854 -121.26128 29958 ft 461 kts 276°
2026-05-03 23:48 37.66449 -121.34180 29933 ft 459 kts 276°
2026-05-03 23:49 37.67031 -121.42146 29929 ft 457 kts 276°
2026-05-03 23:49 37.67609 -121.50119 29937 ft 455 kts 276°
2026-05-03 23:50 37.68086 -121.56750 29938 ft 456 kts 276°
2026-05-03 23:50 37.68757 -121.66169 29976 ft 468 kts 276°
2026-05-03 23:51 37.69333 -121.74356 29978 ft 471 kts 276°
2026-05-03 23:51 37.69909 -121.82613 29992 ft 471 kts 275°
2026-05-03 23:52 37.70475 -121.90832 29967 ft 468 kts 275°
2026-05-03 23:52 37.71032 -121.98985 29992 ft 464 kts 275°
2026-05-03 23:53 37.71579 -122.07078 29986 ft 461 kts 275°
2026-05-03 23:53 37.72119 -122.15127 29965 ft 461 kts 275°
2026-05-03 23:54 37.72188 -122.23279 30024 ft 472 kts 261°
2026-05-03 23:54 37.70554 -122.31309 30023 ft 473 kts 250°
2026-05-03 23:55 37.68502 -122.39212 29976 ft 474 kts 249°
2026-05-03 23:55 37.66463 -122.47121 29988 ft 473 kts 249°
2026-05-03 23:56 37.64469 -122.55012 29996 ft 471 kts 250°
2026-05-03 23:56 37.62497 -122.62871 30028 ft 469 kts 250°
2026-05-03 23:57 37.60534 -122.70682 30008 ft 465 kts 250°
2026-05-03 23:57 37.58594 -122.78370 29990 ft 461 kts 250°
2026-05-03 23:58 37.56652 -122.86039 29996 ft 458 kts 249°
2026-05-03 23:58 37.54716 -122.93653 30018 ft 456 kts 250°
2026-05-03 23:59 37.52778 -123.01257 29996 ft 454 kts 250°
2026-05-03 23:59 37.50846 -123.08814 29993 ft 452 kts 250°
2026-05-04 00:00 37.48916 -123.16342 30026 ft 451 kts 250°
2026-05-04 00:00 37.47004 -123.23776 30000 ft 446 kts 251°
2026-05-04 00:01 37.45097 -123.31170 29987 ft 442 kts 250°
2026-05-04 00:01 37.43203 -123.38493 29994 ft 438 kts 250°
2026-05-04 00:02 37.41310 -123.45787 30006 ft 438 kts 250°
2026-05-04 00:02 37.39407 -123.53101 30009 ft 441 kts 250°
2026-05-04 00:03 37.37498 -123.60414 30003 ft 444 kts 250°
2026-05-04 00:03 37.35564 -123.67804 30003 ft 446 kts 250°
2026-05-04 00:04 37.33639 -123.75143 29990 ft 435 kts 250°
2026-05-04 00:04 37.32065 -123.81130 30008 ft 436 kts 250°
2026-05-04 00:05 37.30145 -123.88405 30009 ft 441 kts 250°
2026-05-04 00:05 37.28208 -123.95724 30018 ft 442 kts 250°
2026-05-04 00:06 37.26290 -124.02958 29980 ft 431 kts 250°
2026-05-04 00:06 37.24385 -124.10117 30009 ft 434 kts 250°
2026-05-04 00:07 37.22460 -124.17331 30009 ft 436 kts 250°
2026-05-04 00:07 37.20539 -124.24513 30012 ft 437 kts 250°
2026-05-04 00:08 37.18601 -124.31740 29987 ft 435 kts 250°
2026-05-04 00:08 37.16677 -124.38891 29999 ft 432 kts 250°
2026-05-04 00:09 37.14757 -124.46009 29999 ft 430 kts 250°
2026-05-04 00:09 37.12839 -124.53103 30001 ft 429 kts 250°
2026-05-04 00:10 37.10921 -124.60173 30004 ft 428 kts 250°
2026-05-04 00:10 37.09001 -124.67236 30004 ft 428 kts 250°
2026-05-04 00:11 37.07086 -124.74259 30011 ft 429 kts 250°
2026-05-04 00:11 37.05152 -124.81335 29999 ft 429 kts 250°
2026-05-04 00:12 37.03214 -124.88408 30006 ft 428 kts 250°
2026-05-04 00:12 37.01278 -124.95457 30009 ft 428 kts 250°
2026-05-04 00:13 36.99357 -125.02449 30019 ft 427 kts 251°
2026-05-04 00:13 36.97457 -125.09496 30010 ft 428 kts 251°
2026-05-04 00:14 36.95553 -125.16576 30018 ft 430 kts 250°
2026-05-04 00:14 36.93634 -125.23681 30011 ft 432 kts 250°
2026-05-04 00:15 36.91706 -125.30794 30010 ft 432 kts 250°
2026-05-04 00:15 36.89779 -125.37878 30009 ft 432 kts 250°
2026-05-04 00:16 36.87845 -125.44969 30008 ft 430 kts 250°
2026-05-04 00:16 36.85911 -125.52042 30021 ft 429 kts 251°
2026-05-04 00:17 36.83982 -125.59079 30007 ft 427 kts 251°
2026-05-04 00:17 36.82056 -125.66082 30008 ft 426 kts 250°
2026-05-04 00:18 36.80144 -125.73020 30010 ft 425 kts 250°
2026-05-04 00:18 36.78217 -125.79991 30021 ft 425 kts 251°
2026-05-04 00:19 36.76287 -125.86960 30013 ft 425 kts 251°
2026-05-04 00:19 36.74350 -125.93930 30015 ft 425 kts 251°
2026-05-04 00:20 36.72409 -126.00900 30014 ft 425 kts 250°
2026-05-04 00:20 36.70476 -126.07822 30014 ft 425 kts 250°
2026-05-04 00:21 36.68526 -126.14789 30012 ft 425 kts 250°
2026-05-04 00:21 36.66570 -126.21755 30014 ft 425 kts 250°
2026-05-04 00:22 36.64612 -126.28715 30016 ft 425 kts 251°
2026-05-04 00:22 36.62666 -126.35614 30010 ft 425 kts 251°
2026-05-04 00:23 36.60702 -126.42557 30014 ft 424 kts 250°
2026-05-04 00:23 36.58736 -126.49490 30014 ft 424 kts 250°
2026-05-04 00:24 36.56768 -126.56410 30019 ft 424 kts 251°
2026-05-04 00:24 36.54794 -126.63339 30022 ft 423 kts 251°
2026-05-04 00:25 36.52835 -126.70194 30025 ft 423 kts 251°
2026-05-04 00:25 36.50857 -126.77100 30023 ft 423 kts 251°
2026-05-04 00:26 36.48878 -126.83994 30017 ft 424 kts 251°
2026-05-04 00:26 36.46895 -126.90888 30015 ft 424 kts 251°
2026-05-04 00:27 36.44904 -126.97778 30016 ft 424 kts 251°
2026-05-04 00:27 36.42905 -127.04661 30022 ft 423 kts 251°
2026-05-04 00:28 36.40906 -127.11532 30022 ft 422 kts 251°
2026-05-04 00:28 36.38908 -127.18390 30024 ft 422 kts 251°
2026-05-04 00:29 36.36909 -127.25231 30031 ft 421 kts 251°
2026-05-04 00:29 36.34923 -127.32015 30023 ft 420 kts 251°
2026-05-04 00:30 36.32922 -127.38832 30023 ft 420 kts 251°
2026-05-04 00:30 36.30920 -127.45634 30026 ft 420 kts 251°
2026-05-04 00:31 36.28917 -127.52426 30034 ft 419 kts 251°
2026-05-04 00:31 36.26912 -127.59208 30028 ft 419 kts 251°
2026-05-04 00:32 36.24903 -127.65983 30029 ft 418 kts 251°
2026-05-04 00:32 36.22893 -127.72748 30031 ft 418 kts 251°
2026-05-04 00:33 36.19892 -127.82821 30030 ft 417 kts 251°
2026-05-04 00:34 36.17881 -127.89549 30034 ft 416 kts 251°
2026-05-04 00:34 36.15866 -127.96275 30027 ft 416 kts 251°
2026-05-04 00:35 36.13849 -128.02989 30034 ft 416 kts 251°
2026-05-04 00:35 36.11840 -128.09662 30035 ft 416 kts 251°
2026-05-04 00:36 36.09817 -128.16366 30036 ft 416 kts 251°
2026-05-04 00:36 36.07792 -128.23064 30033 ft 416 kts 251°
2026-05-04 00:37 36.05762 -128.29758 30039 ft 416 kts 251°
2026-05-04 00:37 36.03729 -128.36448 30041 ft 416 kts 251°
2026-05-04 00:38 36.01691 -128.43139 30032 ft 416 kts 251°
2026-05-04 00:38 35.99661 -128.49787 30037 ft 416 kts 251°
2026-05-04 00:39 35.97615 -128.56474 30036 ft 416 kts 251°
2026-05-04 00:39 35.95564 -128.63160 30040 ft 416 kts 251°
2026-05-04 00:40 35.93511 -128.69839 30038 ft 416 kts 251°
2026-05-04 00:40 35.91456 -128.76505 30040 ft 415 kts 251°
2026-05-04 00:41 35.89399 -128.83167 30037 ft 415 kts 251°
2026-05-04 00:41 35.87341 -128.89815 30030 ft 415 kts 251°
2026-05-04 00:42 35.85279 -128.96461 30049 ft 414 kts 251°
2026-05-04 00:42 35.83227 -129.03058 30043 ft 414 kts 251°
2026-05-04 00:43 35.81159 -129.09692 30039 ft 414 kts 251°
2026-05-04 00:43 35.79090 -129.16313 30053 ft 414 kts 251°
2026-05-04 00:44 35.77016 -129.22937 30046 ft 414 kts 251°
2026-05-04 00:44 35.74942 -129.29545 30048 ft 413 kts 251°
2026-05-04 00:45 35.72866 -129.36145 30041 ft 413 kts 251°
2026-05-04 00:45 35.70801 -129.42696 30048 ft 413 kts 251°
2026-05-04 00:46 35.68721 -129.49279 30052 ft 413 kts 251°
2026-05-04 00:46 35.66631 -129.55879 30051 ft 413 kts 251°
2026-05-04 00:47 35.64542 -129.62460 30050 ft 413 kts 251°
2026-05-04 00:47 35.62448 -129.69043 30055 ft 413 kts 251°
2026-05-04 00:48 35.60349 -129.75628 30052 ft 414 kts 251°
2026-05-04 00:48 35.58245 -129.82210 30051 ft 414 kts 251°
2026-05-04 00:49 35.56150 -129.88753 30061 ft 413 kts 251°
2026-05-04 00:49 35.54035 -129.95344 30058 ft 414 kts 251°
2026-05-04 00:50 35.51921 -130.01915 30059 ft 413 kts 251°
2026-05-04 00:50 35.49819 -130.08436 30058 ft 413 kts 251°
2026-05-04 00:51 35.47700 -130.14992 30065 ft 413 kts 251°
2026-05-04 00:51 35.45578 -130.21548 30063 ft 413 kts 251°
2026-05-04 00:52 35.43813 -130.26987 30047 ft 413 kts 251°
2026-05-04 00:52 35.41340 -130.34594 30065 ft 413 kts 251°
2026-05-04 00:53 35.39569 -130.40029 30071 ft 413 kts 251°
2026-05-04 00:53 35.37430 -130.46579 30064 ft 413 kts 251°
2026-05-04 00:54 35.35290 -130.53121 30062 ft 414 kts 251°
2026-05-04 00:54 35.33139 -130.59678 30076 ft 415 kts 251°
2026-05-04 00:55 35.30988 -130.66224 30073 ft 417 kts 251°
2026-05-04 00:55 35.28816 -130.72819 30077 ft 418 kts 251°
2026-05-04 00:56 35.26638 -130.79417 30074 ft 418 kts 251°
2026-05-04 00:56 35.24454 -130.86019 30078 ft 417 kts 251°
2026-05-04 00:57 35.22290 -130.92544 30062 ft 416 kts 251°
2026-05-04 00:57 35.20114 -130.99094 30078 ft 415 kts 251°
2026-05-04 00:58 35.17936 -131.05635 30078 ft 415 kts 251°
2026-05-04 00:58 35.15758 -131.12163 30083 ft 414 kts 251°
2026-05-04 00:59 35.13579 -131.18679 30072 ft 414 kts 251°
2026-05-04 00:59 35.11397 -131.25191 30087 ft 414 kts 251°
2026-05-04 01:00 35.09210 -131.31703 30089 ft 414 kts 251°
2026-05-04 01:00 35.07030 -131.38180 30084 ft 414 kts 251°
2026-05-04 01:01 35.04835 -131.44691 30091 ft 415 kts 251°
2026-05-04 01:01 35.02635 -131.51200 30086 ft 415 kts 251°
2026-05-04 01:02 35.00431 -131.57708 30073 ft 415 kts 251°
2026-05-04 01:02 34.98226 -131.64205 30088 ft 414 kts 251°
2026-05-04 01:03 34.96022 -131.70684 30088 ft 413 kts 251°
2026-05-04 01:03 34.93816 -131.77155 30092 ft 413 kts 251°
2026-05-04 01:04 34.91612 -131.83609 30091 ft 412 kts 251°
2026-05-04 01:04 34.89424 -131.90003 30104 ft 411 kts 251°
2026-05-04 01:05 34.87219 -131.96430 30101 ft 411 kts 251°
2026-05-04 01:05 34.85013 -132.02849 30094 ft 410 kts 252°
2026-05-04 01:06 34.82807 -132.09257 30099 ft 410 kts 252°
2026-05-04 01:06 34.80596 -132.15665 30102 ft 410 kts 252°
2026-05-04 01:07 34.78384 -132.22061 30092 ft 410 kts 252°
2026-05-04 01:07 34.76187 -132.28400 30101 ft 409 kts 252°
2026-05-04 01:08 34.73974 -132.34777 30106 ft 409 kts 252°
2026-05-04 01:08 34.71759 -132.41141 30082 ft 408 kts 252°
2026-05-04 01:09 34.69548 -132.47485 30105 ft 407 kts 253°
2026-05-04 01:09 34.67334 -132.53822 30116 ft 407 kts 252°
2026-05-04 01:10 34.65119 -132.60152 30112 ft 407 kts 252°
2026-05-04 01:10 34.62916 -132.66430 30113 ft 406 kts 253°
2026-05-04 01:11 34.60689 -132.72769 30120 ft 405 kts 253°
2026-05-04 01:11 34.58491 -132.79010 30118 ft 405 kts 253°
2026-05-04 01:12 34.56277 -132.85286 30118 ft 404 kts 253°
2026-05-04 01:12 34.54059 -132.91562 30122 ft 404 kts 253°
2026-05-04 01:13 34.51833 -132.97846 30123 ft 405 kts 253°
2026-05-04 01:13 34.49611 -133.04112 30111 ft 408 kts 253°
2026-05-04 01:14 34.47353 -133.10463 30129 ft 411 kts 253°
2026-05-04 01:14 34.45083 -133.16832 30125 ft 412 kts 253°
2026-05-04 01:15 34.42808 -133.23201 30085 ft 411 kts 254°
2026-05-04 01:15 34.40536 -133.29540 30120 ft 407 kts 254°
2026-05-04 01:16 34.38292 -133.35796 30123 ft 404 kts 254°
2026-05-04 01:16 34.36063 -133.42005 30124 ft 401 kts 255°
2026-05-04 01:17 34.33856 -133.48140 30127 ft 399 kts 255°
2026-05-04 01:17 34.31630 -133.54317 30132 ft 400 kts 255°
2026-05-04 01:18 34.29402 -133.60489 30138 ft 401 kts 255°
2026-05-04 01:18 34.27163 -133.66679 30130 ft 401 kts 256°
2026-05-04 01:19 34.24920 -133.72864 30133 ft 402 kts 256°
2026-05-04 01:19 34.22683 -133.79020 30140 ft 402 kts 255°
2026-05-04 01:20 34.20428 -133.85212 30123 ft 401 kts 256°
2026-05-04 01:20 34.18179 -133.91379 30133 ft 401 kts 256°
2026-05-04 01:21 34.15928 -133.97540 30147 ft 400 kts 256°
2026-05-04 01:21 34.13679 -134.03683 30104 ft 400 kts 256°
2026-05-04 01:22 34.11445 -134.09774 30135 ft 399 kts 256°
2026-05-04 01:22 34.09196 -134.15895 30148 ft 399 kts 256°
2026-05-04 01:23 34.06944 -134.22013 30146 ft 399 kts 256°
2026-05-04 01:23 34.04694 -134.28116 30146 ft 398 kts 256°
2026-05-04 01:24 34.02441 -134.34215 30150 ft 398 kts 256°
2026-05-04 01:24 34.00166 -134.40374 30239 ft 410 kts 256°
2026-05-04 01:24 33.99013 -134.43507 30342 ft 418 kts 256°
2026-05-04 01:25 33.97822 -134.46730 30563 ft 424 kts 256°
2026-05-04 01:25 33.96613 -134.49986 30876 ft 427 kts 256°
2026-05-04 01:25 33.95399 -134.53244 31319 ft 426 kts 256°
2026-05-04 01:25 33.94188 -134.56476 31913 ft 419 kts 256°
2026-05-04 01:26 33.92992 -134.59665 32138 ft 418 kts 256°
2026-05-04 01:26 33.90619 -134.66014 32146 ft 411 kts 256°
2026-05-04 01:27 33.88279 -134.72281 32178 ft 410 kts 256°
2026-05-04 01:27 33.85936 -134.78560 32166 ft 412 kts 256°
2026-05-04 01:28 33.83576 -134.84863 32171 ft 413 kts 256°
2026-05-04 01:28 33.81221 -134.91134 32166 ft 413 kts 256°
2026-05-04 01:29 33.78847 -134.97439 32166 ft 413 kts 256°
2026-05-04 01:29 33.76481 -135.03710 32161 ft 411 kts 256°
2026-05-04 01:30 33.74132 -135.09928 32166 ft 411 kts 256°
2026-05-04 01:30 33.71764 -135.16185 32175 ft 411 kts 256°
2026-05-04 01:31 33.69397 -135.22429 32160 ft 411 kts 256°
2026-05-04 01:31 33.67023 -135.28682 32174 ft 412 kts 256°
2026-05-04 01:32 33.64633 -135.34963 32179 ft 414 kts 256°
2026-05-04 01:32 33.62245 -135.41227 32166 ft 416 kts 255°
2026-05-04 01:33 33.59828 -135.47550 32169 ft 416 kts 255°
2026-05-04 01:33 33.57409 -135.53868 32179 ft 417 kts 255°
2026-05-04 01:34 33.54986 -135.60185 32167 ft 417 kts 255°
2026-05-04 01:34 33.52560 -135.66497 32163 ft 416 kts 255°
2026-05-04 01:35 33.50132 -135.72804 32177 ft 416 kts 255°
2026-05-04 01:35 33.47722 -135.79050 32167 ft 415 kts 254°
2026-05-04 01:36 33.45295 -135.85334 32181 ft 415 kts 254°
2026-05-04 01:36 33.42866 -135.91610 32188 ft 416 kts 254°
2026-05-04 01:37 33.40429 -135.97893 32166 ft 416 kts 254°
2026-05-04 01:37 33.37987 -136.04179 32188 ft 417 kts 253°
2026-05-04 01:38 33.35535 -136.10480 32195 ft 418 kts 253°
2026-05-04 01:38 33.33072 -136.16796 32191 ft 419 kts 253°
2026-05-04 01:39 33.30617 -136.23080 32191 ft 420 kts 253°
2026-05-04 01:39 33.28132 -136.29426 32195 ft 421 kts 253°
2026-05-04 01:40 33.25642 -136.35776 32178 ft 422 kts 252°
2026-05-04 01:40 33.23567 -136.41057 32187 ft 422 kts 252°
2026-05-04 01:41 33.20662 -136.48437 32199 ft 423 kts 252°
2026-05-04 01:41 33.18563 -136.53761 32200 ft 423 kts 252°
2026-05-04 01:42 33.16052 -136.60119 32184 ft 423 kts 252°
2026-05-04 01:42 33.13529 -136.66493 32189 ft 425 kts 252°
2026-05-04 01:43 33.11018 -136.72828 32204 ft 426 kts 252°
2026-05-04 01:43 33.08479 -136.79219 32205 ft 426 kts 251°
2026-05-04 01:44 33.05930 -136.85625 32205 ft 426 kts 251°
2026-05-04 01:44 33.03385 -136.92007 32204 ft 426 kts 251°
2026-05-04 01:45 33.00854 -136.98341 32183 ft 425 kts 251°
2026-05-04 01:45 32.97032 -137.07889 32203 ft 425 kts 251°
2026-05-04 01:46 32.94475 -137.14262 32208 ft 426 kts 251°
2026-05-04 01:46 32.91916 -137.20629 32197 ft 427 kts 250°
2026-05-04 01:47 32.89348 -137.27005 32211 ft 428 kts 250°
2026-05-04 01:47 32.86772 -137.33390 32207 ft 428 kts 250°
2026-05-04 01:48 32.84187 -137.39787 32198 ft 429 kts 250°
2026-05-04 01:48 32.81609 -137.46152 32211 ft 430 kts 250°
2026-05-04 01:49 32.79011 -137.52554 32210 ft 430 kts 250°
2026-05-04 01:49 32.76401 -137.58975 32209 ft 430 kts 250°
2026-05-04 01:50 32.73794 -137.65377 32207 ft 430 kts 249°
2026-05-04 01:50 32.71185 -137.71772 32216 ft 430 kts 249°
2026-05-04 01:51 32.68568 -137.78175 32210 ft 430 kts 249°
2026-05-04 01:51 32.65967 -137.84528 32212 ft 430 kts 249°
2026-05-04 01:52 32.63346 -137.90918 32219 ft 430 kts 249°
2026-05-04 01:52 32.60720 -137.97307 32220 ft 431 kts 249°
2026-05-04 01:53 32.58090 -138.03696 32210 ft 431 kts 249°
2026-05-04 01:53 32.55474 -138.10040 32220 ft 431 kts 249°
2026-05-04 01:54 32.52833 -138.16431 32217 ft 431 kts 249°
2026-05-04 01:54 32.50189 -138.22818 32212 ft 431 kts 248°
2026-05-04 01:55 32.47541 -138.29205 32221 ft 431 kts 248°
2026-05-04 01:55 32.44891 -138.35583 32221 ft 432 kts 248°
2026-05-04 01:56 32.42237 -138.41960 32223 ft 432 kts 248°
2026-05-04 01:56 32.39580 -138.48334 32218 ft 432 kts 248°
2026-05-04 01:57 32.36918 -138.54706 32226 ft 432 kts 248°
2026-05-04 01:57 32.34269 -138.61039 32227 ft 432 kts 248°
2026-05-04 01:58 32.31596 -138.67416 32213 ft 432 kts 248°
2026-05-04 01:58 32.28922 -138.73782 32225 ft 432 kts 248°
2026-05-04 01:59 32.26249 -138.80136 32231 ft 432 kts 248°
2026-05-04 01:59 32.23569 -138.86498 32224 ft 432 kts 248°
2026-05-04 02:00 32.20904 -138.92810 32231 ft 432 kts 248°
2026-05-04 02:00 32.18217 -138.99163 32230 ft 432 kts 248°
2026-05-04 02:01 32.15524 -139.05520 32231 ft 432 kts 248°
2026-05-04 02:01 32.12832 -139.11863 32229 ft 432 kts 248°
2026-05-04 02:02 32.10138 -139.18200 32228 ft 432 kts 248°
2026-05-04 02:02 32.07458 -139.24491 32232 ft 432 kts 248°
2026-05-04 02:03 32.04757 -139.30823 32217 ft 432 kts 248°
2026-05-04 02:03 32.02052 -139.37152 32226 ft 432 kts 248°
2026-05-04 02:04 31.99343 -139.43478 32230 ft 432 kts 247°
2026-05-04 02:04 31.96629 -139.49807 32225 ft 433 kts 247°
2026-05-04 02:05 31.93911 -139.56132 32221 ft 433 kts 247°
2026-05-04 02:05 31.91189 -139.62458 32232 ft 433 kts 247°
2026-05-04 02:06 31.88462 -139.68782 32225 ft 433 kts 247°
2026-05-04 02:06 31.85733 -139.75100 32214 ft 433 kts 247°
2026-05-04 02:07 31.82997 -139.81425 32232 ft 433 kts 247°
2026-05-04 02:07 31.80276 -139.87702 32231 ft 433 kts 247°
2026-05-04 02:08 31.77537 -139.94012 32228 ft 433 kts 247°
2026-05-04 02:08 31.74795 -140.00317 32227 ft 433 kts 246°
2026-05-04 02:09 31.72051 -140.06616 32232 ft 433 kts 246°
2026-05-04 02:09 31.69302 -140.12915 32231 ft 433 kts 246°
2026-05-04 02:10 31.66568 -140.19169 32233 ft 433 kts 246°
2026-05-04 02:10 31.63814 -140.25459 32232 ft 433 kts 246°
2026-05-04 02:11 31.61056 -140.31745 32231 ft 433 kts 246°
2026-05-04 02:11 31.58297 -140.38025 32235 ft 433 kts 246°
2026-05-04 02:12 31.55536 -140.44297 32223 ft 433 kts 246°
2026-05-04 02:12 31.52773 -140.50564 32233 ft 433 kts 246°
2026-05-04 02:13 31.50022 -140.56795 32233 ft 433 kts 246°
2026-05-04 02:13 31.47248 -140.63066 32233 ft 433 kts 246°
2026-05-04 02:14 31.44471 -140.69331 32232 ft 433 kts 246°
2026-05-04 02:14 31.41687 -140.75605 32234 ft 433 kts 246°
2026-05-04 02:15 31.38904 -140.81863 32237 ft 433 kts 246°
2026-05-04 02:15 31.36139 -140.88071 32227 ft 433 kts 246°
2026-05-04 02:16 31.33351 -140.94321 32234 ft 433 kts 246°
2026-05-04 02:16 31.30562 -141.00564 32235 ft 433 kts 246°
2026-05-04 02:17 31.27771 -141.06799 32236 ft 433 kts 246°
2026-05-04 02:17 31.24972 -141.13043 32233 ft 433 kts 246°
2026-05-04 02:18 31.22175 -141.19273 32237 ft 433 kts 246°
2026-05-04 02:18 31.19374 -141.25503 32238 ft 433 kts 246°
2026-05-04 02:19 31.16565 -141.31733 32235 ft 433 kts 246°
2026-05-04 02:19 31.13765 -141.37925 32235 ft 433 kts 245°
2026-05-04 02:20 31.10950 -141.44137 32237 ft 433 kts 245°
2026-05-04 02:20 31.08129 -141.50359 32238 ft 433 kts 245°
2026-05-04 02:21 31.05308 -141.56572 32239 ft 433 kts 245°
2026-05-04 02:21 31.02485 -141.62777 32240 ft 433 kts 245°
2026-05-04 02:22 30.99675 -141.68946 32234 ft 433 kts 245°
2026-05-04 02:22 30.96848 -141.75139 32234 ft 432 kts 245°
2026-05-04 02:23 30.94021 -141.81326 32227 ft 432 kts 245°
2026-05-04 02:23 30.91192 -141.87505 32237 ft 431 kts 245°
2026-05-04 02:24 30.88368 -141.93663 32236 ft 431 kts 245°
2026-05-04 02:24 30.85561 -141.99774 32237 ft 431 kts 245°
2026-05-04 02:25 30.82732 -142.05924 32226 ft 430 kts 245°
2026-05-04 02:25 30.79905 -142.12058 32236 ft 430 kts 245°
2026-05-04 02:26 30.77072 -142.18196 32234 ft 430 kts 245°
2026-05-04 02:26 30.74720 -142.23284 32237 ft 430 kts 245°
2026-05-04 02:27 30.71886 -142.29407 32226 ft 430 kts 245°
2026-05-04 02:27 30.68593 -142.36508 32231 ft 429 kts 245°
2026-05-04 02:28 30.66217 -142.41623 32231 ft 429 kts 245°
2026-05-04 02:28 30.63406 -142.47668 32236 ft 428 kts 245°
2026-05-04 02:29 30.60575 -142.53745 32220 ft 428 kts 245°
2026-05-04 02:29 30.57743 -142.59813 32226 ft 427 kts 245°
2026-05-04 02:30 30.54911 -142.65874 32234 ft 427 kts 245°
2026-05-04 02:30 30.52079 -142.71924 32226 ft 427 kts 245°
2026-05-04 02:31 30.49246 -142.77968 32220 ft 426 kts 245°
2026-05-04 02:31 30.46413 -142.84001 32230 ft 425 kts 245°
2026-05-04 02:32 30.43584 -142.90015 32230 ft 425 kts 245°
2026-05-04 02:32 30.40757 -142.96019 32223 ft 424 kts 245°
2026-05-04 02:33 30.37928 -143.02016 32217 ft 424 kts 245°
2026-05-04 02:33 30.35099 -143.08003 32221 ft 423 kts 245°
2026-05-04 02:34 30.32291 -143.13938 32227 ft 422 kts 245°
2026-05-04 02:34 30.29463 -143.19904 32225 ft 422 kts 245°
2026-05-04 02:35 30.26635 -143.25865 32218 ft 422 kts 244°
2026-05-04 02:35 30.23801 -143.31826 32227 ft 422 kts 244°
2026-05-04 02:36 30.20989 -143.37732 32225 ft 422 kts 244°
2026-05-04 02:36 30.18157 -143.43671 32226 ft 422 kts 244°
2026-05-04 02:37 30.15318 -143.49616 32224 ft 422 kts 244°
2026-05-04 02:37 30.12476 -143.55559 32223 ft 422 kts 244°
2026-05-04 02:38 30.09633 -143.61494 32220 ft 422 kts 244°
2026-05-04 02:38 30.06804 -143.67392 32220 ft 422 kts 244°
2026-05-04 02:39 30.03956 -143.73320 32221 ft 422 kts 244°
2026-05-04 02:39 30.01104 -143.79246 32219 ft 421 kts 244°
2026-05-04 02:40 29.98257 -143.85155 32217 ft 421 kts 244°
2026-05-04 02:40 29.95429 -143.91015 32214 ft 420 kts 244°
2026-05-04 02:41 29.92581 -143.96907 32220 ft 420 kts 244°
2026-05-04 02:41 29.89731 -144.02795 32216 ft 420 kts 244°
2026-05-04 02:42 29.86888 -144.08660 32212 ft 419 kts 244°
2026-05-04 02:42 29.84036 -144.14534 32216 ft 419 kts 244°
2026-05-04 02:43 29.81189 -144.20389 32211 ft 419 kts 244°
2026-05-04 02:43 29.78360 -144.26201 32207 ft 419 kts 244°
2026-05-04 02:44 29.75514 -144.32037 32210 ft 418 kts 244°
2026-05-04 02:44 29.72663 -144.37874 32206 ft 417 kts 244°
2026-05-04 02:45 29.69818 -144.43691 32206 ft 417 kts 244°
2026-05-04 02:45 29.66971 -144.49504 32213 ft 417 kts 244°
2026-05-04 02:46 29.64121 -144.55315 32216 ft 416 kts 244°
2026-05-04 02:46 29.61277 -144.61104 32211 ft 416 kts 244°
2026-05-04 02:47 29.58446 -144.66860 32210 ft 416 kts 244°
2026-05-04 02:47 29.55596 -144.72645 32217 ft 416 kts 244°
2026-05-04 02:48 29.52747 -144.78420 32213 ft 415 kts 244°
2026-05-04 02:48 29.49901 -144.84182 32201 ft 415 kts 244°
2026-05-04 02:49 29.47053 -144.89937 32204 ft 414 kts 244°
2026-05-04 02:49 29.44225 -144.95646 32214 ft 414 kts 244°
2026-05-04 02:50 29.41380 -145.01379 32205 ft 413 kts 244°
2026-05-04 02:50 29.38524 -145.07126 32209 ft 413 kts 244°
2026-05-04 02:51 29.35677 -145.12848 32209 ft 412 kts 244°
2026-05-04 02:51 29.32835 -145.18552 32201 ft 412 kts 244°
2026-05-04 02:52 29.29991 -145.24252 32193 ft 412 kts 244°
2026-05-04 02:52 29.27158 -145.29921 32205 ft 411 kts 243°
2026-05-04 02:53 29.24312 -145.35609 32199 ft 411 kts 243°
2026-05-04 02:53 29.21465 -145.41291 32196 ft 411 kts 244°
2026-05-04 02:54 29.18613 -145.46975 32200 ft 411 kts 244°
2026-05-04 02:54 29.15778 -145.52617 32192 ft 411 kts 243°
2026-05-04 02:55 29.11500 -145.61116 32196 ft 410 kts 243°
2026-05-04 02:56 29.08649 -145.66769 32198 ft 410 kts 243°
2026-05-04 02:56 29.05804 -145.72404 32195 ft 409 kts 243°
2026-05-04 02:57 29.02947 -145.78058 32014 ft 416 kts 240°
2026-05-04 02:57 29.00107 -145.83661 32114 ft 407 kts 243°
2026-05-04 02:57 28.98680 -145.86478 31991 ft 412 kts 242°
2026-05-04 02:58 28.97258 -145.89280 32078 ft 403 kts 243°
2026-05-04 02:58 28.94435 -145.94840 32182 ft 406 kts 243°
2026-05-04 02:59 28.91575 -146.00470 32187 ft 411 kts 243°
2026-05-04 02:59 28.88691 -146.06139 32199 ft 415 kts 243°
2026-05-04 03:00 28.85788 -146.11830 32185 ft 414 kts 243°
2026-05-04 03:00 28.82898 -146.17488 32187 ft 411 kts 243°
2026-05-04 03:01 28.80047 -146.23064 32188 ft 408 kts 243°
2026-05-04 03:01 28.77190 -146.28645 32191 ft 406 kts 243°
2026-05-04 03:02 28.74342 -146.34201 32189 ft 405 kts 243°
2026-05-04 03:02 28.71499 -146.39742 32191 ft 405 kts 243°
2026-05-04 03:03 28.68642 -146.45303 32192 ft 406 kts 243°
2026-05-04 03:03 28.65798 -146.50828 32191 ft 407 kts 243°
2026-05-04 03:04 28.62925 -146.56404 32189 ft 408 kts 243°
2026-05-04 03:04 28.60048 -146.61979 32181 ft 408 kts 243°
2026-05-04 03:05 28.57174 -146.67539 32180 ft 407 kts 243°
2026-05-04 03:05 28.54321 -146.73054 32184 ft 406 kts 243°
2026-05-04 03:06 28.51452 -146.78592 32183 ft 406 kts 243°
2026-05-04 03:06 28.48584 -146.84120 32184 ft 405 kts 243°
2026-05-04 03:07 28.45722 -146.89629 32190 ft 404 kts 243°
2026-05-04 03:07 28.42859 -146.95134 32177 ft 404 kts 243°
2026-05-04 03:08 28.40015 -147.00594 32182 ft 403 kts 243°
2026-05-04 03:08 28.37157 -147.06075 32185 ft 403 kts 243°
2026-05-04 03:09 28.34293 -147.11561 32184 ft 403 kts 243°
2026-05-04 03:09 28.31433 -147.17030 32186 ft 403 kts 243°
2026-05-04 03:10 28.28573 -147.22493 32184 ft 402 kts 243°
2026-05-04 03:10 28.25713 -147.27948 32183 ft 402 kts 243°
2026-05-04 03:11 28.22868 -147.33368 32190 ft 402 kts 243°
2026-05-04 03:11 28.20005 -147.38815 32182 ft 402 kts 243°
2026-05-04 03:12 28.17141 -147.44258 32187 ft 401 kts 243°
2026-05-04 03:12 28.14276 -147.49695 32182 ft 400 kts 243°
2026-05-04 03:13 28.11418 -147.55111 32175 ft 399 kts 243°
2026-05-04 03:13 28.08583 -147.60479 32187 ft 399 kts 243°
2026-05-04 03:14 28.05720 -147.65894 32189 ft 400 kts 243°
2026-05-04 03:14 28.03337 -147.70394 32191 ft 401 kts 243°
2026-05-04 03:15 28.00466 -147.75808 32181 ft 401 kts 243°
2026-05-04 03:15 27.97596 -147.81215 32181 ft 400 kts 243°
2026-05-04 03:16 27.94727 -147.86615 32179 ft 400 kts 243°
2026-05-04 03:16 27.91882 -147.91963 32183 ft 399 kts 242°
2026-05-04 03:17 27.89018 -147.97337 32193 ft 398 kts 242°
2026-05-04 03:17 27.86155 -148.02698 32183 ft 399 kts 242°
2026-05-04 03:18 27.83228 -148.08178 32354 ft 416 kts 242°
2026-05-04 03:18 27.81718 -148.11003 32544 ft 422 kts 242°
2026-05-04 03:18 27.80196 -148.13848 32850 ft 424 kts 242°
2026-05-04 03:18 27.78669 -148.16694 33318 ft 422 kts 242°
2026-05-04 03:19 27.77158 -148.19508 33905 ft 417 kts 242°
2026-05-04 03:19 27.75661 -148.22295 34176 ft 415 kts 242°
2026-05-04 03:19 27.74168 -148.25074 34160 ft 411 kts 242°
2026-05-04 03:20 27.71238 -148.30525 34174 ft 404 kts 242°
2026-05-04 03:20 27.68312 -148.35969 34190 ft 406 kts 242°
2026-05-04 03:21 27.65372 -148.41433 34190 ft 408 kts 242°
2026-05-04 03:21 27.62440 -148.46870 34182 ft 409 kts 242°
2026-05-04 03:22 27.59481 -148.52351 34171 ft 408 kts 241°
2026-05-04 03:22 27.56530 -148.57809 34173 ft 406 kts 241°
2026-05-04 03:23 27.53607 -148.63207 34176 ft 405 kts 241°
2026-05-04 03:23 27.50672 -148.68623 34177 ft 404 kts 241°
2026-05-04 03:24 27.47741 -148.74026 34175 ft 404 kts 241°
2026-05-04 03:24 27.44809 -148.79423 34179 ft 404 kts 241°
2026-05-04 03:25 27.41871 -148.84824 34181 ft 405 kts 241°
2026-05-04 03:25 27.38926 -148.90231 34177 ft 405 kts 241°
2026-05-04 03:26 27.35976 -148.95641 34178 ft 406 kts 241°
2026-05-04 03:26 27.33020 -149.01055 34176 ft 406 kts 241°
2026-05-04 03:27 27.30072 -149.06447 34180 ft 406 kts 241°
2026-05-04 03:27 27.27115 -149.11850 34174 ft 405 kts 241°
2026-05-04 03:28 27.24159 -149.17243 34164 ft 404 kts 241°
2026-05-04 03:28 27.21228 -149.22586 34177 ft 404 kts 241°
2026-05-04 03:29 27.18269 -149.27973 34179 ft 405 kts 241°
2026-05-04 03:29 27.15317 -149.33339 34181 ft 405 kts 241°
2026-05-04 03:30 27.12351 -149.38725 34175 ft 405 kts 241°
2026-05-04 03:30 27.09381 -149.44111 34177 ft 405 kts 240°
2026-05-04 03:31 27.06416 -149.49481 34166 ft 405 kts 240°
2026-05-04 03:31 27.03450 -149.54849 34176 ft 405 kts 240°
2026-05-04 03:32 27.00480 -149.60215 34182 ft 405 kts 240°
2026-05-04 03:32 26.97506 -149.65583 34181 ft 405 kts 240°
2026-05-04 03:33 26.94552 -149.70907 34171 ft 405 kts 240°
2026-05-04 03:33 26.91579 -149.76260 34175 ft 404 kts 240°
2026-05-04 03:34 26.88605 -149.81608 34156 ft 404 kts 240°
2026-05-04 03:34 26.85631 -149.86950 34177 ft 404 kts 240°
2026-05-04 03:35 26.82652 -149.92295 34187 ft 405 kts 240°
2026-05-04 03:35 26.79664 -149.97650 34177 ft 405 kts 240°
2026-05-04 03:36 26.76668 -150.03011 34173 ft 406 kts 240°
2026-05-04 03:36 26.73692 -150.08331 34176 ft 406 kts 240°
2026-05-04 03:37 26.70696 -150.13680 34165 ft 406 kts 240°
2026-05-04 03:37 26.67700 -150.19022 34167 ft 405 kts 240°
2026-05-04 03:38 26.64700 -150.24365 34177 ft 405 kts 240°
2026-05-04 03:38 26.61694 -150.29713 34174 ft 405 kts 240°
2026-05-04 03:39 26.58713 -150.35010 34169 ft 405 kts 240°
2026-05-04 03:39 26.55710 -150.40340 34176 ft 405 kts 240°
2026-05-04 03:40 26.52706 -150.45665 34169 ft 405 kts 240°
2026-05-04 03:40 26.49700 -150.50988 34159 ft 405 kts 240°
2026-05-04 03:41 26.46692 -150.56307 34171 ft 405 kts 240°
2026-05-04 03:41 26.43682 -150.61626 34171 ft 405 kts 240°
2026-05-04 03:42 26.40685 -150.66914 34167 ft 406 kts 240°
2026-05-04 03:42 26.37666 -150.72233 34170 ft 406 kts 240°
2026-05-04 03:43 26.34646 -150.77550 34178 ft 406 kts 240°
2026-05-04 03:43 26.31625 -150.82861 34161 ft 405 kts 240°
2026-05-04 03:44 26.28606 -150.88163 34164 ft 405 kts 240°
2026-05-04 03:44 26.25589 -150.93455 34165 ft 405 kts 240°
2026-05-04 03:45 26.22569 -150.98746 34174 ft 405 kts 240°
2026-05-04 03:45 26.19544 -151.04040 34171 ft 405 kts 240°
2026-05-04 03:46 26.16521 -151.09325 34175 ft 404 kts 240°
2026-05-04 03:46 26.13512 -151.14577 34168 ft 404 kts 240°
2026-05-04 03:47 26.10488 -151.19853 34163 ft 404 kts 240°
2026-05-04 03:47 26.07457 -151.25132 34169 ft 404 kts 240°
2026-05-04 03:48 26.04422 -151.30413 34168 ft 405 kts 240°
2026-05-04 03:48 26.01394 -151.35675 34171 ft 406 kts 240°
2026-05-04 03:49 25.98350 -151.40959 34169 ft 405 kts 240°
2026-05-04 03:49 25.95314 -151.46224 34166 ft 404 kts 240°
2026-05-04 03:50 25.92278 -151.51482 34158 ft 403 kts 240°
2026-05-04 03:50 25.89248 -151.56724 34166 ft 403 kts 240°
2026-05-04 03:51 25.86217 -151.61963 34164 ft 403 kts 240°
2026-05-04 03:51 25.83177 -151.67211 34164 ft 404 kts 240°
2026-05-04 03:52 25.80156 -151.72420 34163 ft 404 kts 240°
2026-05-04 03:52 25.77108 -151.77668 34164 ft 404 kts 239°
2026-05-04 03:53 25.74056 -151.82918 34162 ft 405 kts 239°
2026-05-04 03:53 25.71000 -151.88170 34157 ft 405 kts 239°
2026-05-04 03:54 25.67933 -151.93435 34168 ft 406 kts 239°
2026-05-04 03:54 25.64866 -151.98694 34163 ft 406 kts 239°
2026-05-04 03:55 25.61813 -152.03921 34159 ft 406 kts 239°
2026-05-04 03:55 25.58746 -152.09168 34160 ft 405 kts 239°
2026-05-04 03:56 25.55677 -152.14411 34160 ft 405 kts 239°
2026-05-04 03:56 25.52610 -152.19646 34160 ft 404 kts 239°
2026-05-04 03:57 25.49561 -152.24844 34164 ft 404 kts 239°
2026-05-04 03:57 25.46503 -152.30052 34155 ft 403 kts 239°
2026-05-04 03:58 25.41922 -152.37843 34157 ft 402 kts 239°
2026-05-04 03:58 25.38867 -152.43031 34159 ft 402 kts 239°
2026-05-04 03:59 25.35814 -152.48211 34159 ft 402 kts 239°
2026-05-04 03:59 25.32756 -152.53392 34153 ft 402 kts 239°
2026-05-04 04:00 25.30213 -152.57698 34156 ft 403 kts 239°
2026-05-04 04:00 25.26642 -152.63737 34162 ft 403 kts 239°
2026-05-04 04:01 25.24068 -152.68085 34162 ft 404 kts 239°
2026-05-04 04:01 25.21001 -152.73260 34160 ft 404 kts 239°
2026-05-04 04:02 25.17915 -152.78462 34161 ft 404 kts 239°
2026-05-04 04:02 25.14829 -152.83658 34163 ft 404 kts 239°
2026-05-04 04:03 25.11753 -152.88832 34161 ft 404 kts 239°
2026-05-04 04:03 25.08662 -152.94025 34158 ft 404 kts 239°
2026-05-04 04:04 25.05572 -152.99211 34159 ft 404 kts 239°
2026-05-04 04:04 25.02495 -153.04370 34158 ft 404 kts 239°
2026-05-04 04:05 24.99399 -153.09555 34158 ft 404 kts 239°
2026-05-04 04:05 24.96300 -153.14738 34151 ft 405 kts 239°
2026-05-04 04:06 24.93198 -153.19921 34157 ft 405 kts 239°
2026-05-04 04:06 24.90111 -153.25075 34145 ft 405 kts 239°
2026-05-04 04:07 24.87006 -153.30253 34157 ft 405 kts 239°
2026-05-04 04:07 24.83896 -153.35433 34155 ft 405 kts 239°
2026-05-04 04:08 24.80781 -153.40616 34152 ft 406 kts 239°
2026-05-04 04:08 24.77664 -153.45796 34149 ft 406 kts 239°
2026-05-04 04:09 24.74546 -153.50973 34154 ft 406 kts 239°
2026-05-04 04:09 24.71443 -153.56119 34154 ft 406 kts 239°
2026-05-04 04:10 24.68317 -153.61298 34148 ft 406 kts 239°
2026-05-04 04:10 24.65196 -153.66463 34158 ft 406 kts 239°
2026-05-04 04:11 24.62066 -153.71639 34151 ft 406 kts 239°
2026-05-04 04:11 24.58936 -153.76807 34153 ft 406 kts 239°
2026-05-04 04:12 24.55804 -153.81975 34152 ft 406 kts 239°
2026-05-04 04:12 24.52679 -153.87124 34152 ft 407 kts 239°
2026-05-04 04:13 24.49537 -153.92297 34152 ft 407 kts 239°
2026-05-04 04:13 24.46391 -153.97471 34141 ft 407 kts 239°
2026-05-04 04:14 24.43265 -154.02606 34155 ft 407 kts 239°
2026-05-04 04:14 24.40118 -154.07771 34157 ft 407 kts 239°
2026-05-04 04:15 24.36967 -154.12937 34153 ft 408 kts 239°
2026-05-04 04:15 24.33812 -154.18107 34152 ft 408 kts 239°
2026-05-04 04:16 24.30653 -154.23276 34149 ft 408 kts 239°
2026-05-04 04:16 24.27481 -154.28439 34150 ft 408 kts 239°
2026-05-04 04:17 24.24297 -154.33584 34140 ft 408 kts 238°
2026-05-04 04:17 24.21130 -154.38696 34150 ft 408 kts 239°
2026-05-04 04:18 24.17943 -154.43840 34154 ft 408 kts 239°
2026-05-04 04:18 24.14746 -154.48996 34153 ft 409 kts 239°
2026-05-04 04:19 24.11549 -154.54148 34150 ft 409 kts 239°
2026-05-04 04:19 24.08347 -154.59303 34149 ft 409 kts 239°
2026-05-04 04:20 24.05146 -154.64450 34149 ft 409 kts 238°
2026-05-04 04:20 24.01942 -154.69599 34140 ft 409 kts 238°
2026-05-04 04:21 23.98741 -154.74735 34149 ft 409 kts 238°
2026-05-04 04:21 23.95557 -154.79840 34147 ft 409 kts 238°
2026-05-04 04:22 23.92350 -154.84977 34148 ft 409 kts 238°
2026-05-04 04:22 23.89138 -154.90115 34147 ft 409 kts 238°
2026-05-04 04:23 23.85925 -154.95251 34149 ft 409 kts 238°
2026-05-04 04:23 23.82704 -155.00394 34153 ft 409 kts 238°
2026-05-04 04:24 23.79489 -155.05522 34138 ft 409 kts 238°
2026-05-04 04:24 23.76283 -155.10631 34152 ft 410 kts 238°
2026-05-04 04:25 23.73057 -155.15766 34150 ft 410 kts 238°
2026-05-04 04:25 23.69828 -155.20901 34150 ft 411 kts 238°
2026-05-04 04:26 23.66593 -155.26040 34145 ft 411 kts 238°
2026-05-04 04:26 23.63351 -155.31185 34145 ft 411 kts 238°
2026-05-04 04:27 23.60106 -155.36331 34145 ft 411 kts 238°
2026-05-04 04:27 23.56873 -155.41453 34130 ft 410 kts 238°
2026-05-04 04:28 23.53657 -155.46534 34143 ft 410 kts 237°
2026-05-04 04:28 23.51700 -155.48814 34127 ft 416 kts 219°
2026-05-04 04:28 23.49313 -155.50606 34163 ft 418 kts 217°
2026-05-04 04:29 23.44408 -155.54071 34145 ft 420 kts 216°
2026-05-04 04:29 23.39505 -155.57533 34145 ft 420 kts 216°
2026-05-04 04:30 23.34611 -155.61034 34144 ft 421 kts 217°
2026-05-04 04:30 23.29729 -155.64547 34143 ft 421 kts 217°
2026-05-04 04:31 23.24855 -155.68059 34141 ft 420 kts 217°
2026-05-04 04:31 23.20012 -155.71545 34141 ft 420 kts 217°
2026-05-04 04:32 23.15145 -155.75044 34141 ft 419 kts 217°
2026-05-04 04:32 23.10278 -155.78540 34141 ft 419 kts 217°
2026-05-04 04:33 23.05421 -155.82026 34104 ft 418 kts 217°
2026-05-04 04:33 23.00568 -155.85505 34130 ft 418 kts 217°
2026-05-04 04:34 22.95740 -155.88964 34143 ft 418 kts 217°
2026-05-04 04:34 22.90888 -155.92437 34138 ft 418 kts 217°
2026-05-04 04:35 22.86031 -155.95911 34143 ft 418 kts 217°
2026-05-04 04:35 22.81165 -155.99388 34138 ft 418 kts 217°
2026-05-04 04:36 22.76299 -156.02862 34133 ft 418 kts 217°
2026-05-04 04:36 22.71468 -156.06308 34138 ft 418 kts 217°
2026-05-04 04:37 22.61727 -156.13247 34134 ft 419 kts 217°
2026-05-04 04:38 22.56887 -156.16691 34137 ft 419 kts 217°
2026-05-04 04:38 22.52016 -156.20154 34123 ft 419 kts 216°
2026-05-04 04:39 22.47134 -156.23622 34134 ft 419 kts 216°
2026-05-04 04:39 22.42255 -156.27085 34138 ft 419 kts 216°
2026-05-04 04:40 22.37405 -156.30525 34132 ft 419 kts 216°
2026-05-04 04:40 22.32540 -156.34000 34130 ft 418 kts 220°
2026-05-04 04:41 22.30499 -156.36180 34151 ft 411 kts 233°
2026-05-04 04:41 22.28696 -156.38574 34127 ft 412 kts 234°
2026-05-04 04:41 22.25085 -156.43381 34119 ft 412 kts 233°
2026-05-04 04:42 22.21440 -156.48170 34134 ft 413 kts 233°
2026-05-04 04:42 22.17767 -156.52954 33894 ft 415 kts 233°
2026-05-04 04:43 22.15932 -156.55335 33594 ft 409 kts 233°
2026-05-04 04:43 22.14139 -156.57660 33164 ft 406 kts 233°
2026-05-04 04:43 22.12341 -156.59991 32771 ft 402 kts 233°
2026-05-04 04:43 22.10557 -156.62303 32358 ft 399 kts 233°
2026-05-04 04:44 22.08780 -156.64605 31952 ft 396 kts 233°
2026-05-04 04:44 22.07026 -156.66878 31554 ft 393 kts 233°
2026-05-04 04:44 22.05280 -156.69139 31161 ft 391 kts 233°
2026-05-04 04:44 22.03544 -156.71386 30770 ft 389 kts 233°
2026-05-04 04:45 22.01833 -156.73600 30390 ft 387 kts 233°
2026-05-04 04:45 22.00112 -156.75826 29931 ft 386 kts 233°
2026-05-04 04:45 21.98399 -156.78042 29510 ft 382 kts 233°
2026-05-04 04:47 21.88423 -156.90924 27006 ft 364 kts 233°
2026-05-04 04:47 21.86804 -156.93013 26606 ft 362 kts 232°
2026-05-04 04:47 21.85196 -156.95085 26210 ft 359 kts 232°
2026-05-04 04:47 21.83616 -156.97119 25815 ft 357 kts 232°
2026-05-04 04:48 21.82025 -156.99170 25390 ft 356 kts 232°
2026-05-04 04:49 21.75734 -157.07276 23776 ft 350 kts 232°
2026-05-04 04:49 21.74175 -157.09283 23308 ft 349 kts 232°
2026-05-04 04:49 21.72622 -157.11281 22874 ft 347 kts 232°
2026-05-04 04:49 21.71600 -157.12597 22592 ft 345 kts 232°
2026-05-04 04:50 21.70068 -157.14568 22188 ft 342 kts 232°
2026-05-04 04:50 21.68546 -157.16525 21770 ft 340 kts 232°
2026-05-04 04:50 21.67030 -157.18474 21378 ft 338 kts 232°
2026-05-04 04:50 21.65525 -157.20407 20983 ft 335 kts 232°
2026-05-04 04:51 21.64031 -157.22327 20584 ft 334 kts 232°
2026-05-04 04:51 21.62545 -157.24235 20197 ft 331 kts 232°
2026-05-04 04:51 21.61065 -157.26136 19803 ft 330 kts 232°
2026-05-04 04:51 21.59597 -157.28020 19411 ft 328 kts 232°
2026-05-04 04:52 21.58151 -157.29875 19009 ft 327 kts 232°
2026-05-04 04:52 21.56690 -157.31750 18607 ft 327 kts 232°
2026-05-04 04:52 21.55228 -157.33623 18179 ft 326 kts 232°
2026-05-04 04:52 21.53775 -157.35486 17751 ft 324 kts 232°
2026-05-04 04:53 21.52328 -157.37341 17349 ft 322 kts 232°
2026-05-04 04:53 21.50886 -157.39187 16901 ft 322 kts 232°
2026-05-04 04:53 21.49451 -157.41026 16475 ft 321 kts 231°
2026-05-04 04:53 21.48036 -157.42836 16071 ft 319 kts 232°
2026-05-04 04:54 21.46614 -157.44656 15677 ft 318 kts 232°
2026-05-04 04:54 21.45197 -157.46470 15283 ft 316 kts 231°
2026-05-04 04:54 21.43787 -157.48273 14884 ft 315 kts 231°
2026-05-04 04:54 21.42378 -157.50074 14475 ft 314 kts 231°
2026-05-04 04:55 21.40970 -157.51872 14043 ft 315 kts 231°
2026-05-04 04:55 21.39559 -157.53672 13552 ft 312 kts 231°
2026-05-04 04:55 21.38179 -157.55433 13136 ft 306 kts 231°
2026-05-04 04:55 21.36814 -157.57176 12748 ft 304 kts 231°
2026-05-04 04:56 21.35454 -157.58910 12360 ft 303 kts 231°
2026-05-04 04:56 21.34100 -157.60636 11976 ft 301 kts 230°
2026-05-04 04:56 21.32747 -157.62360 11596 ft 300 kts 230°
2026-05-04 04:56 21.31418 -157.64053 11188 ft 300 kts 230°
2026-05-04 04:57 21.30075 -157.65763 10814 ft 299 kts 230°
2026-05-04 04:57 21.28729 -157.67474 10408 ft 300 kts 230°
2026-05-04 04:57 21.27393 -157.69179 10145 ft 295 kts 232°
2026-05-04 04:57 21.26471 -157.71089 9935 ft 286 kts 256°
2026-05-04 04:58 21.26146 -157.73197 9528 ft 287 kts 264°
2026-05-04 04:58 21.25960 -157.75322 9168 ft 286 kts 265°
2026-05-04 04:58 21.25793 -157.77442 8814 ft 285 kts 265°
2026-05-04 04:58 21.25621 -157.79553 8468 ft 284 kts 265°
2026-05-04 04:59 21.25443 -157.81661 8104 ft 283 kts 265°
2026-05-04 04:59 21.25261 -157.83732 7771 ft 282 kts 265°
2026-05-04 04:59 21.25072 -157.85827 7404 ft 283 kts 265°
2026-05-04 04:59 21.24881 -157.87922 7077 ft 281 kts 264°
2026-05-04 05:00 21.24688 -157.90017 6730 ft 284 kts 264°
2026-05-04 05:00 21.24494 -157.92123 6461 ft 282 kts 264°
2026-05-04 05:00 21.24116 -157.96177 6165 ft 265 kts 264°
2026-05-04 05:01 21.23935 -157.98112 6064 ft 256 kts 264°
2026-05-04 05:01 21.23780 -157.99994 5849 ft 252 kts 269°
2026-05-04 05:01 21.23766 -158.01878 5537 ft 253 kts 271°
2026-05-04 05:01 21.23781 -158.03770 5214 ft 255 kts 271°
2026-05-04 05:02 21.23792 -158.05668 4929 ft 253 kts 271°
2026-05-04 05:02 21.23921 -158.07526 4598 ft 246 kts 284°
2026-05-04 05:02 21.24571 -158.09142 4257 ft 228 kts 310°
2026-05-04 05:02 21.25640 -158.10232 3939 ft 204 kts 336°
2026-05-04 05:03 21.26867 -158.10768 3696 ft 181 kts 354°
2026-05-04 05:03 21.28054 -158.10949 3479 ft 163 kts
2026-05-04 05:04 21.30950 -158.09901 2915 ft 140 kts 43°
2026-05-04 05:04 21.31592 -158.09172 2798 ft 127 kts 55°
2026-05-04 05:04 21.32047 -158.08388 2594 ft 122 kts 65°
2026-05-04 05:06 21.32527 -158.02185 1477 ft 127 kts 85°
2026-05-04 05:06 21.32527 -158.01239 1346 ft 127 kts 85°
2026-05-04 05:06 21.32525 -158.00280 1159 ft 131 kts 85°
2026-05-04 05:07 21.32539 -157.99288 977 ft 131 kts 84°
2026-05-04 05:07 21.32519 -157.98336 819 ft 128 kts 86°
2026-05-04 05:07 21.32483 -157.97349 578 ft 136 kts 82°
2026-05-04 05:09 21.32627 -157.92140 12 ft 13 kts 60°
2026-05-04 05:09 21.32670 -157.92056 14 ft 13 kts 62°
2026-05-04 05:10 21.32712 -157.91975 12 ft 12 kts 58°
2026-05-04 05:10 21.32760 -157.91902 10 ft 12 kts 58°
2026-05-04 05:10 21.32784 -157.91819 11 ft 12 kts 91°
2026-05-04 05:10 21.32835 -157.91786 12 ft 11 kts 333°
2026-05-04 05:11 21.32890 -157.91838 11 ft 11 kts 284°
2026-05-04 05:11 21.32872 -157.91916 10 ft 11 kts 252°
2026-05-04 05:11 21.32891 -157.91971 11 ft 8 kts 316°
2026-05-04 05:11 21.32902 -157.91982 11 ft 0 kts 318°